Location: Newark
(54.0500°N, 12.8333°E)
Time: 12:14:12
(UTC+00:00)

Transit 4A - Pass Details

Date: 31 January 2020
Orbit: 872 x 973 km, 66.8° (Epoch: 24 February)

Event Time Altitude Azimuth Distance (km) Brightness Sun altitude
Exits shadow 03:31:00 - 173° (S) 3,262 10.7 -30.3°
Reaches altitude 10° 03:33:09 10° 163° (SSE) 2,578 10.3 -30.0°
Maximum altitude 03:37:50 25° 110° (ESE) 1,732 9.8 -29.3°
Drops below altitude 10° 03:42:29 10° 58° (ENE) 2,548 11.0 -28.7°
Sets 03:45:22 0° 46° (NE) 3,482 11.7 -28.2°
